This demonstration page uses our WeatherBlox Daily Observations layout. Learn more.

Left ArrowRight Arrow

30.21309, -93.2044

Hourly Observations for April 4, 2022

Temp ( °F °C ) Dew Point ( °F °C ) Humidity (%) Winds ( mph kmh ) Pressure ( in mb ) Visibility ( mi km ) Precip ( " mm )
3:15 am 03:15 Clear 56 13.4 55 12.5 94 94 SE 3 6 29.86 1011 7 11 0.00 0.00
3:35 am 03:35 Clear 57 13.9 56 13.1 95 95 Calm 29.86 1011 7 11 0.00 0.00
3:55 am 03:55 Clear 58 14.3 56 13.5 95 95 Calm 29.86 1011 10 16 0.00 0.00
4:15 am 04:15 Clear 58 14.5 56 13.6 94 94 E 3 6 29.86 1011 10 16 0.00 0.00
4:35 am 04:35 Clear 57 13.9 56 13.1 95 95 ESE 3 6 29.86 1011 7 11 0.00 0.00
4:55 am 04:55 Mostly Cloudy with Mist and Fog 56 13.6 55 12.9 96 96 Calm 29.85 1011 1 1 0.00 0.00
5:15 am 05:15 Clear 58 14.3 56 13.5 95 95 Calm 29.86 1011 7 11 0.00 0.00
5:35 am 05:35 Clear 57 14 56 13.3 96 96 Calm 29.86 1011 7 11 0.00 0.00
6:00 am 06:00 Partly Cloudy 54 12 54 12 100 100 Calm 29.86 1011 7 11 0.00 0.00
6:45 am 06:45 Mostly Cloudy with Fog 54 12 54 12 100 100 Calm 29.87 1012 1 1 0.00 0.00
7:55 am 07:55 Partly Cloudy with Mist and Fog 61 16 59 15 94 94 Calm 29.90 1013 3 5 0.00 0.00
8:50 am 08:50 Mostly Sunny 64 18 63 17 94 94 ENE 3 6 29.91 1013 7 11 0.00 0.00
9:50 am 09:50 Partly Cloudy 72 22 64 18 78 78 ESE 7 11 29.91 1013 10 16 0.00 0.00
10:45 am 10:45 Partly Cloudy 75 24 64 18 69 69 SE 15 24 29.90 1013 10 16 0.00 0.00
11:45 am 11:45 Mostly Cloudy 75 24 63 17 65 65 S 8 13 29.91 1013 10 16 0.00 0.00
12:50 pm 12:50 Mostly Cloudy 79 26 64 18 61 61 ESE 8 13 29.88 1012 10 16 0.00 0.00
2:35 pm 14:35 Mostly Cloudy 79 26 64 18 61 61 SE 10 17 29.83 1010 10 16 0.00 0.00
2:55 pm 14:55 Cloudy 79 26 64 18 61 61 SSE 13 20 29.82 1010 10 16 0.00 0.00
3:50 pm 15:50 Cloudy 75 24 64 18 69 69 SE 13 20 29.80 1009 10 16 0.00 0.00
4:46 pm 16:46 Mostly Cloudy 77 25 64 18 65 65 SE 15 24 29.78 1008 10 16 0.00 0.00
5:52 pm 17:52 Mostly Cloudy 75 24 64 18 69 69 SE 10 17 29.76 1008 10 16 0.00 0.00
6:58 pm 18:58 Cloudy 72 22 66 19 83 83 SSE 15 24 29.76 1008 10 16 0.00 0.00
7:30 pm 19:30 Cloudy with Mist and Fog 70 21 66 19 88 88 SSE 15 24 29.97 1015 5 8 0.00 0.00
7:55 pm 19:55 Cloudy with Mist and Fog 70 21 66 19 88 88 SE 13 20 29.77 1008 5 8 0.00 0.00
8:54 pm 20:54 Mostly Cloudy 68 20 64 18 88 88 ESE 9 15 29.76 1008 10 16 0.00 0.00
9:53 pm 21:53 Mostly Cloudy with Light Rain 68 20 64 18 88 88 SE 12 19 29.75 1007 5 8 0.00 0.00
10:15 pm 22:15 Cloudy 69 20.3 65 18.5 89 89 SE 10 17 29.75 1007 10 16 0.00 0.00
10:35 pm 22:35 Cloudy 69 20.7 65 18.6 88 88 SE 12 19 29.74 1007 10 16 0.00 0.00
10:55 pm 22:55 Cloudy 70 20.9 66 18.7 87 87 SE 13 20 29.73 1007 10 16 0.00 0.00
11:15 pm 23:15 Cloudy 70 21 66 18.9 88 88 SSE 10 17 29.73 1007 10 16 0.00 0.00
11:35 pm 23:35 Cloudy 70 21.1 67 19.3 90 90 SSE 12 19 29.73 1007 10 16 0.00 0.00
11:55 pm 23:55 Cloudy 70 21.2 67 19.5 90 90 SSE 10 17 29.73 1007 10 16 0.00 0.00

Powered by AerisWeather